Flag for Saint Kitts and Nevis Weather past 2 weeks in Basseterre, Saint Kitts and Nevis

Now
81 °F

Passing clouds.


Feels Like: 86 °F
Forecast: 82 / 85 °F
Wind: 12 mph from Northeast

Location: Golden Rock

Current Time: Aug 31, 2014 at 2:44:26 AM

Latest Report: Aug 30, 2014 at 11:00 PM


Visibility: N/A

Pressure: 30.07 "Hg

Humidity: 84%

Dew point: 75 °F

Location of BasseterreLocation

Historic Weather in Basseterre — Graph

°F

Basseterre temperature yesterday

Maximum temperature yesterday: 88 °F (at 12:00 PM)
Minimum temperature yesterday: 79 °F (at 10:00 PM)
Average temperature yesterday: 83 °F

Past Weeks' High & Low Weather Summary

 TemperatureHumidityPressure
High90 °F (Aug 27, 12:00 PM)100% (Aug 16, 6:00 AM)31.24 "Hg (Aug 16, 6:00 AM)
Low75 °F (Aug 28, 8:00 PM)66% (Aug 22, 11:00 AM)29.86 "Hg (Aug 21, 4:00 PM)
Average83 °F81%29.98 "Hg
* Reported Aug 16 6:00 AM — Aug 30 11:00 PM, Basseterre, Weather by CustomWeather, © 2014

Note: Actual official high and low records may vary slightly from our data, if they occured in-between our weather recording intervals... More about our weather records

Advertising

Basseterre weather history for previous 24 hours

 ConditionsComfort  
Time TempWeatherWind HumidityBarometerVisibility
11:00 PM
Aug 30
81 °FPassing clouds.12 mph84%30.07 "HgN/A
10:00 PM79 °FPassing clouds.8 mph89%30.07 "HgN/A
9:00 PM81 °FPassing clouds.10 mph84%30.07 "HgN/A
8:00 PM81 °FPassing clouds.12 mph84%30.04 "HgN/A
7:00 PM81 °FPassing clouds.9 mph84%30.04 "HgN/A
6:00 PM81 °FScattered showers. Scattered clouds.8 mph84%30.04 "HgN/A
5:00 PM82 °FScattered showers. Passing clouds.14 mph79%30.01 "HgN/A
4:00 PM82 °FScattered showers. Cloudy.13 mph79%30.01 "HgN/A
2:00 PM86 °FPassing clouds.13 mph75%30.04 "HgN/A
1:00 PM84 °FPassing clouds.10 mph84%30.07 "HgN/A
12:00 PM88 °FScattered showers. Partly sunny.14 mph70%30.07 "HgN/A
11:00 AM84 °FPartly sunny.13 mph74%30.07 "HgN/A
10:00 AM84 °FBroken clouds.13 mph74%30.07 "HgN/A
9:00 AM84 °FScattered showers. Partly sunny.13 mph70%30.07 "HgN/A
8:00 AM84 °FScattered showers. Passing clouds.9 mph70%30.04 "HgN/A
7:00 AM82 °FPassing clouds.9 mph79%30.04 "HgN/A
6:00 AM81 °FSprinkles. Passing clouds.10 mph84%30.01 "HgN/A
Weather by CustomWeather, © 2014

See weather overviewHow to use our weather pages